Charlotte, MI

11:27 AM EDT on August 25, 2016 (GMT -0400)
Charlotte

Weather History for KFPK - January, 2013

Change the Weather History Date:

Wednesday, January 30, 2013

  Actual Average (KLAN) Record (KLAN)
Temperature  
Mean Temperature 42 °F 24 °F  
Max Temperature 56 °F 30 °F 56 °F (2013)
Min Temperature 26 °F 17 °F -22 °F (1867)
Degree Days  
Heating Degree Days 24 42  
Month to date heating degree days 1251  
Since 1 July heating degree days 3803  
Cooling Degree Days 0 0  
Month to date cooling degree days 0  
Year to date cooling degree days 0  
Moisture  
Dew Point 45 °F    
Average Humidity 96    
Maximum Humidity 100    
Minimum Humidity 79    
Precipitation  
Precipitation 0.75 in 0.04 in 1.10 in (1947)
Month to date precipitation 1.60  
Year to date precipitation 1.60  
Snow  
Snow 0.00 in 0.50 in 6.10 in (1939)
Month to date snowfall 13.4  
Since 1 July snowfall 30.2  
Snow Depth -    
Sea Level Pressure  
Sea Level Pressure 29.24 in    
Wind  
Wind Speed 6 mph (SW)    
Max Wind Speed 21 mph    
Max Gust Speed 32 mph    
Visibility 4 miles    
Events Fog , Rain    
T = Trace of Precipitation, MM = Missing Value Source: NWS Daily Summary

Daily Weather History Graph

Daily Weather History Graph

Search for Another Location

Airport or City:

Trip Planner

Search our weather history database for the weather conditions in past years. The results will help you decide how hot, cold, wet, or windy it might be!

Date:

Astronomy

Jan. 30, 2013 Rise Set
Actual Time 7:55 AM EST 5:50 PM EST
Civil Twilight 7:25 AM EST 6:20 PM EST
Nautical Twilight 6:51 AM EST 6:54 PM EST
Astronomical Twilight 6:18 AM EST 7:27 PM EST
Moon 9:55 PM EST (1/30) 9:16 AM EST (1/30)
Length of Visible Light 10h 55m
Length of Day
9h 55m
Waning Gibbous, 88% of the Moon is Illuminated
Jan 30
Waning Gibbous
Feb 3
Last Quarter
Feb 10
New
Feb 17
First Quarter
Feb 25
Full

Hourly Weather History & Observations

Time (EST) Temp. Windchill Dew Point Humidity Pressure Visibility Wind Dir Wind Speed Gust Speed Precip Events Conditions
12:15 AM 56.5 °F - 56.5 °F 100% 29.36 in 5.0 mi South 9.2 mph - 0.01 in Rain Light Rain
12:35 AM 56.3 °F - 56.3 °F 100% 29.36 in 4.0 mi SSW 8.1 mph - 0.03 in Rain Rain
12:55 AM 56.3 °F - 56.3 °F 100% 29.34 in 4.0 mi South 4.6 mph - 0.07 in Rain Rain
1:15 AM 55.9 °F - 55.9 °F 100% 29.33 in 2.5 mi SW 3.5 mph - 0.04 in Rain Rain
1:35 AM 56.3 °F - 56.3 °F 100% 29.33 in 3.0 mi SW 4.6 mph - 0.11 in Rain Rain
1:55 AM 54.5 °F - 54.5 °F 100% 29.33 in 4.0 mi West 10.4 mph - 0.23 in Rain Heavy Rain
2:15 AM 53.6 °F - 53.6 °F 100% 29.33 in 5.0 mi WNW 8.1 mph - 0.04 in Rain Rain
2:35 AM 52.9 °F - 52.9 °F 100% 29.34 in 5.0 mi NW 6.9 mph - 0.09 in Rain Rain
2:55 AM 52.3 °F - 52.3 °F 100% 29.35 in 5.0 mi West 6.9 mph - 0.12 in Rain Rain
3:15 AM 52.0 °F - 52.0 °F 100% 29.35 in 7.0 mi Calm Calm - 0.02 in Rain Light Rain
3:35 AM 52.0 °F - 52.0 °F 100% 29.33 in 7.0 mi Calm Calm - 0.05 in Rain Light Rain
3:55 AM 50.4 °F - 50.4 °F 100% 29.31 in 4.0 mi Calm Calm - 0.06 in Rain Light Rain
4:15 AM 50.0 °F - 50.0 °F 100% 29.31 in 2.0 mi Calm Calm - 0.01 in Rain Light Rain
4:35 AM 49.6 °F - 49.6 °F 100% 29.31 in 1.0 mi Calm Calm - 0.03 in Rain Light Rain
4:55 AM 49.5 °F - 49.5 °F 100% 29.33 in 1.2 mi Calm Calm - 0.06 in Rain Light Rain
5:15 AM 50.4 °F - 50.4 °F 100% 29.33 in 3.0 mi Calm Calm - 0.04 in Rain Rain
5:35 AM 50.4 °F - 50.4 °F 100% 29.34 in 5.0 mi SW 3.5 mph - 0.07 in Rain Light Rain
5:55 AM 50.7 °F - 50.7 °F 100% 29.33 in 5.0 mi Calm Calm - 0.10 in Rain Light Rain
6:15 AM 50.0 °F - 50.0 °F 100% 29.30 in 2.0 mi Calm Calm - 0.01 in Rain Light Rain
6:35 AM 50.0 °F - 50.0 °F 100% 29.27 in 1.0 mi SE 3.5 mph - 0.01 in   Light Drizzle
6:55 AM 49.1 °F - 49.1 °F 100% 29.28 in 0.5 mi Calm Calm - 0.01 in Fog Fog
7:15 AM 49.3 °F - 49.3 °F 100% 29.25 in 0.2 mi Calm Calm - N/A Fog Fog
7:35 AM 49.1 °F - 49.1 °F 100% 29.27 in 0.5 mi Calm Calm - N/A Fog Fog
7:55 AM 49.1 °F - 49.1 °F 100% 29.25 in 0.2 mi Calm Calm - N/A Fog Fog
8:15 AM 49.1 °F - 49.1 °F 100% 29.26 in 0.2 mi Calm Calm - N/A Fog Fog
8:35 AM 49.1 °F - 49.1 °F 100% 29.25 in 0.2 mi Calm Calm - N/A Fog Fog
8:55 AM 48.9 °F - 48.9 °F 100% 29.24 in 0.2 mi Calm Calm - N/A Fog Fog
9:15 AM 49.8 °F - 49.8 °F 100% 29.27 in 0.2 mi Calm Calm - N/A Fog Fog
9:35 AM 50.5 °F - 50.5 °F 100% 29.27 in 0.2 mi Calm Calm - N/A Fog Fog
9:55 AM 50.5 °F - 50.5 °F 100% 29.29 in 0.2 mi SW 3.5 mph - N/A Fog Fog
10:15 AM 50.4 °F - 50.4 °F 100% 29.29 in 0.5 mi Calm Calm - N/A Fog Fog
10:35 AM 50.4 °F - 50.4 °F 100% 29.28 in 1.5 mi Calm Calm - N/A Rain Rain
10:55 AM 50.4 °F - 50.4 °F 100% 29.26 in 3.0 mi Calm Calm - N/A   Drizzle
11:15 AM 50.4 °F - 50.4 °F 100% 29.26 in 2.0 mi South 5.8 mph - N/A Rain Light Rain
11:35 AM - - - N/A% 29.24 in 1.2 mi South 4.6 mph - 0.01 in   Drizzle
11:55 AM - - - N/A% 29.23 in 1.2 mi South 4.6 mph - 0.01 in Rain Rain
12:15 PM - - - N/A% 29.24 in 1.5 mi SSW 3.5 mph - N/A   Light Drizzle
12:35 PM - - - N/A% 29.21 in 2.0 mi Calm Calm - N/A   Overcast
12:55 PM - - - N/A% 29.18 in 1.8 mi SSW 4.6 mph - N/A Rain Light Rain
1:15 PM - - - N/A% 29.17 in 3.0 mi SSW 8.1 mph - N/A   Overcast
1:35 PM - - - N/A% 29.18 in 10.0 mi SSW 9.2 mph - N/A   Overcast
1:55 PM - - - N/A% - - North - - N/A   Unknown
2:15 PM 49.3 °F - 48.6 °F 97% 29.18 in 2.5 mi South 11.5 mph - N/A   Overcast
2:35 PM 49.1 °F - 48.4 °F 97% 29.14 in 2.0 mi South 10.4 mph 18.4 mph N/A Rain Rain
2:55 PM 49.1 °F - 48.6 °F 98% 29.14 in 2.5 mi South 9.2 mph 16.1 mph N/A   Overcast
3:15 PM 49.3 °F - 48.0 °F 95% 29.13 in 2.0 mi SSW 10.4 mph 24.2 mph N/A   Drizzle
3:35 PM 49.1 °F - 48.0 °F 96% 29.13 in 4.0 mi SSW 8.1 mph 16.1 mph N/A   Overcast
3:55 PM 49.1 °F - 47.3 °F 93% 29.12 in 2.5 mi SSW 9.2 mph 17.3 mph N/A Rain Rain
4:15 PM 48.6 °F - 47.3 °F 95% 29.12 in 10.0 mi South 9.2 mph - N/A   Overcast
4:35 PM 48.0 °F - 46.0 °F 93% 29.12 in 5.0 mi SW 18.4 mph 29.9 mph 0.01 in Rain Rain
4:55 PM 45.0 °F 38.9 °F 42.1 °F 90% 29.14 in 4.0 mi SSW 12.7 mph 24.2 mph 0.04 in Rain Light Rain
5:15 PM 44.2 °F 38.4 °F 41.9 °F 91% 29.12 in 5.0 mi SW 11.5 mph 20.7 mph 0.02 in Rain Light Rain
5:35 PM 43.9 °F 37.5 °F 40.6 °F 88% 29.12 in 10.0 mi SSW 12.7 mph 20.7 mph 0.02 in Rain Light Rain
5:55 PM 43.7 °F 38.1 °F 40.1 °F 87% 29.10 in 10.0 mi SW 10.4 mph 18.4 mph 0.02 in   Overcast
6:15 PM 43.3 °F 37.7 °F 40.3 °F 89% 29.11 in 10.0 mi SSW 10.4 mph 17.3 mph N/A   Overcast
6:35 PM 43.0 °F 36.8 °F 40.6 °F 91% 29.12 in 10.0 mi SSW 11.5 mph - N/A Rain Rain
6:55 PM 41.5 °F 32.6 °F 39.7 °F 93% 29.14 in 7.0 mi WSW 19.6 mph 26.5 mph 0.02 in Rain Light Rain
7:15 PM 39.4 °F 31.8 °F 37.6 °F 93% 29.13 in 7.0 mi WSW 12.7 mph 23.0 mph N/A Rain Light Rain
7:35 PM 38.8 °F 30.8 °F 37.6 °F 95% 29.12 in 5.0 mi West 13.8 mph 18.4 mph N/A   Light Drizzle
7:55 PM 37.4 °F 29.3 °F 35.8 °F 94% 29.16 in 7.0 mi WSW 12.7 mph 20.7 mph 0.01 in Rain Light Rain
8:15 PM 36.7 °F 28.9 °F 35.2 °F 95% 29.14 in 10.0 mi West 11.5 mph - N/A   Overcast
8:35 PM 36.1 °F 28.2 °F 34.7 °F 94% 29.16 in 10.0 mi West 11.5 mph 21.9 mph N/A   Overcast
8:55 PM 34.5 °F 23.8 °F 32.0 °F 90% 29.17 in 10.0 mi West 18.4 mph 23.0 mph N/A   Overcast
9:15 PM 33.1 °F 23.0 °F 31.6 °F 94% 29.18 in 10.0 mi West 15.0 mph 23.0 mph N/A   Overcast
9:35 PM 32.4 °F 22.5 °F 30.9 °F 94% 29.19 in 4.0 mi West 13.8 mph 23.0 mph N/A   Overcast
9:55 PM 31.8 °F 21.8 °F 29.1 °F 90% 29.21 in 10.0 mi West 13.8 mph 26.5 mph N/A   Overcast
10:15 PM 31.1 °F 20.1 °F 28.8 °F 91% 29.23 in 3.0 mi West 16.1 mph 25.3 mph N/A   Overcast
10:35 PM 30.2 °F 17.8 °F 26.6 °F 86% 29.25 in 10.0 mi West 19.6 mph 29.9 mph N/A   Overcast
10:55 PM 28.9 °F 16.5 °F 24.6 °F 84% 29.26 in 10.0 mi West 18.4 mph 32.2 mph N/A   Overcast
11:15 PM 28.2 °F 16.3 °F 23.0 °F 81% 29.28 in 10.0 mi West 16.1 mph - N/A   Overcast
11:35 PM 27.3 °F 13.6 °F 21.6 °F 79% 29.30 in 10.0 mi West 20.7 mph 31.1 mph N/A   Overcast
11:55 PM 26.6 °F 15.7 °F 21.4 °F 81% 29.32 in 10.0 mi West 12.7 mph 25.3 mph N/A   Overcast